Location: Ellingshausen
(50.5460°N, 10.4723°E)
Time: 15:15:22
(UTC+00:00)

Cosmos 1959 Rocket - Visible Passes

Search period start: 19 April 2026 00:00
Search period end: 29 April 2026 00:00
Orbit: 947 x 996 km, 82.9° (Epoch: 19 April)

Date Brightness Start Highest point End Pass type
(mag) Time Alt. Az. Time Alt. Az. Time Alt. Az.
19 Apr 5.2 19:58:00 10° SSW 20:04:12 57° WNW 20:10:26 10° N visible
19 Apr 7.3 21:48:26 10° WNW 21:51:02 13° NW 21:53:37 10° NNW visible
20 Apr 6.1 20:22:49 10° SW 20:28:35 36° WNW 20:34:20 10° N visible
21 Apr 4.5 19:00:48 10° S 19:07:06 77° E 19:13:24 10° NNE visible
21 Apr 6.8 20:48:12 10° WSW 20:53:07 23° WNW 20:58:02 10° N visible
22 Apr 4.9 19:24:57 10° SSW 19:31:15 68° WNW 19:37:32 10° N visible
22 Apr 7.3 21:14:22 10° W 21:17:50 15° NW 21:21:19 10° NNW visible
23 Apr 5.8 19:49:35 10° SW 19:55:34 43° WNW 20:01:31 10° N visible
24 Apr 6.6 20:14:44 10° WSW 20:20:02 28° WNW 20:25:18 10° N visible
25 Apr 7.2 20:40:33 10° W 20:44:40 18° WNW 20:48:48 10° NNW visible
26 Apr 5.5 19:16:27 10° SSW 19:22:34 51° WNW 19:28:40 10° N visible
26 Apr 7.6 21:07:42 10° WNW 21:09:31 11° NW 21:11:18 10° NW visible
27 Apr 6.4 19:41:23 10° SW 19:46:58 33° WNW 19:52:33 10° N visible
28 Apr 8.1 03:02:22 10° NNE 03:04:20 11° NE 03:06:17 10° ENE visible
28 Apr 7.2 20:06:54 10° WSW 20:11:32 21° WNW 20:16:10 10° NNW visible
